Location: Blairvadach
(56.2780°N, 6.9720°W)
Time: 15:23:41
(UTC+00:00)

Envisat - Pass Details

Date: 18 November 2019
Orbit: 764 x 766 km, 98.1° (Epoch: 08 December)

Event Time Altitude Azimuth Distance (km) Brightness Sun altitude
Rises 06:33:10 0° 20° (NNE) 3,247 6.3 -13.1°
Reaches altitude 10° 06:35:47 10° 32° (NNE) 2,316 5.7 -12.8°
Maximum altitude 06:40:13 29° 92° (E) 1,381 5.2 -12.2°
Drops below altitude 10° 06:44:36 10° 152° (SSE) 2,300 6.2 -11.6°
Sets 06:47:11 0° 164° (SSE) 3,221 6.7 -11.3°
